Wenatchee, WA

6:53 PM PDT on March 26, 2017 (GMT -0700)
Pangborn Memorial

Weather History for KEAT - June, 2014

Change the Weather History Date:

Thursday, June 19, 2014

  Actual Average Record
Temperature  
Mean Temperature 61 °F 60 °F  
Max Temperature 75 °F 73 °F 96 °F (1967)
Min Temperature 47 °F 47 °F 40 °F (2016)
Degree Days  
Heating Degree Days 4 6  
Month to date heating degree days 137 135  
Since 1 June heating degree days 137 135  
Since 1 July heating degree days 7184 7086  
Cooling Degree Days 0 1  
Month to date cooling degree days 0 2  
Year to date cooling degree days 0 7  
Since 1 June cooling degree days 0 2  
Growing Degree Days 22 (Base 50)    
Moisture  
Dew Point 37 °F    
Average Humidity 0    
Maximum Humidity 0    
Minimum Humidity 0    
Precipitation  
Precipitation 0.00 in 0.04 in 0.12 in (1991)
Month to date precipitation 1.51 1.02  
Year to date precipitation 8.59 9.05  
Snow  
Snow 0.00 in 0.00 in - ()
Month to date snowfall 0.0 0.0  
Since 1 June snowfall 0.0 0.0  
Since 1 July snowfall 31.0 54.1  
Snow Depth 0.00 in    
Sea Level Pressure  
Sea Level Pressure 29.86 in    
Wind  
Wind Speed 12 mph (NW)    
Max Wind Speed 17 mph    
Max Gust Speed 0 mph    
Visibility 10 miles    
Events      
T = Trace of Precipitation, MM = Missing Value Source: NWS Daily Summary

Daily Weather History Graph

Daily Weather History Graph

Search for Another Location

Airport or City:

Trip Planner

Search our weather history database for the weather conditions in past years. The results will help you decide how hot, cold, wet, or windy it might be!

Date:

Astronomy

Jun. 19, 2014 Rise Set
Actual Time 5:03 AM PDT 9:00 PM PDT
Civil Twilight 4:23 AM PDT 9:41 PM PDT
Nautical Twilight 3:27 AM PDT 10:37 PM PDT
Astronomical Twilight 1:59 AM PDT 12:04 AM PDT
Moon 12:40 AM PDT (6/19) 1:09 PM PDT (6/19)
Length of Visible Light 17h 18m
Length of Day
15h 57m
Waning Gibbous, 50% of the Moon is Illuminated
Jun 19
Waning Gibbous
Jun 27
New
Jul 5
First Quarter
Jul 12
Full
Jul 18
Last Quarter

Hourly Weather History & Observations

Time (PDT) Temp. Dew Point Humidity Pressure Visibility Wind Dir Wind Speed Gust Speed Precip Events Conditions
12:55 AM 62.1 °F 39.0 °F 43% 29.88 in 10.0 mi NW 11.5 mph - N/A   Clear
1:55 AM 62.1 °F 39.0 °F 43% 29.88 in 10.0 mi NW 17.3 mph - N/A   Clear
3:55 AM 59.0 °F 39.9 °F 49% 29.87 in 10.0 mi NNW 10.4 mph - N/A   Clear
4:55 AM 59.0 °F 39.9 °F 49% 29.88 in 10.0 mi WNW 15.0 mph - N/A   Clear
5:55 AM 59.0 °F 39.9 °F 49% 29.89 in 10.0 mi NW 13.8 mph - N/A   Clear
6:55 AM 60.1 °F 39.9 °F 47% 29.90 in 10.0 mi WNW 9.2 mph - N/A   Clear
8:55 AM 66.0 °F 37.9 °F 36% 29.91 in 10.0 mi NW 12.7 mph - N/A   Clear
9:55 AM 72.0 °F 32.0 °F 23% 29.90 in 10.0 mi NW 13.8 mph - N/A   Clear
10:55 AM 72.0 °F 30.0 °F 21% 29.89 in 10.0 mi West 6.9 mph - N/A   Clear
11:55 AM 75.0 °F 32.0 °F 21% 29.88 in 10.0 mi NW 8.1 mph - N/A   Clear
12:55 PM 78.1 °F 33.1 °F 19% 29.87 in 10.0 mi ESE 4.6 mph - N/A   Clear
1:55 PM 82.0 °F 35.1 °F 18% 29.85 in 10.0 mi Variable 5.8 mph - N/A   Clear
2:55 PM 82.9 °F 35.1 °F 18% 29.84 in 10.0 mi North - - N/A   Clear
3:55 PM 84.9 °F 36.0 °F 17% 29.83 in 10.0 mi North 8.1 mph - N/A   Clear
4:55 PM 84.9 °F 36.0 °F 17% 29.82 in 10.0 mi NW 11.5 mph 16.1 mph N/A   Clear
5:55 PM 86.0 °F 36.0 °F 17% 29.82 in 10.0 mi WNW 12.7 mph - N/A   Mostly Cloudy
6:55 PM 84.0 °F 36.0 °F 18% 29.82 in 10.0 mi NNW 10.4 mph - N/A   Clear
7:55 PM 79.0 °F 37.9 °F 23% 29.84 in 10.0 mi NNW 9.2 mph - N/A   Clear
8:55 PM 78.1 °F 39.0 °F 25% 29.85 in 10.0 mi WNW 9.2 mph - N/A   Clear
9:55 PM 75.9 °F 39.9 °F 27% 29.84 in 10.0 mi WNW 16.1 mph - N/A   Clear
10:55 PM 73.9 °F 42.1 °F 32% 29.86 in 10.0 mi WNW 15.0 mph - N/A   Overcast
11:55 PM 70.0 °F 43.0 °F 38% 29.87 in 10.0 mi NNW 9.2 mph - N/A   Clear